Time,TemperatureF,DewpointF,PressureIn,WindDirection,WindDirectionDegrees,WindSpeedMPH,WindSpeedGustMPH,Humidity,HourlyPrecipIn,Conditions,Clouds,dailyrainin,SoftwareType,DateUTC
2013-10-08 00:00:00,55.7,18.5,29.94,WNW,285,2.0,6.0,23,0.00,,---,0.00,VWS V14.01,2013-10-08 07:00:00,
2013-10-08 00:01:00,55.6,18.4,29.94,SSW,211,2.0,2.0,23,0.00,,---,0.00,VWS V14.01,2013-10-08 07:01:00,
2013-10-08 00:06:00,54.7,18.6,29.94,West,267,2.0,4.0,24,0.00,,---,0.00,VWS V14.01,2013-10-08 07:06:00,
2013-10-08 00:11:00,53.6,18.6,29.94,SW,233,1.0,4.0,25,0.00,,---,0.00,VWS V14.01,2013-10-08 07:11:00,
2013-10-08 00:16:00,52.9,19.0,29.94,West,276,2.0,4.0,26,0.00,,---,0.00,VWS V14.01,2013-10-08 07:16:00,
2013-10-08 00:21:00,52.7,18.8,29.94,WNW,285,4.0,5.0,26,0.00,,---,0.00,VWS V14.01,2013-10-08 07:21:00,
2013-10-08 00:26:00,53.2,18.3,29.94,WNW,285,4.0,5.0,25,0.00,,---,0.00,VWS V14.01,2013-10-08 07:26:00,
2013-10-08 00:30:00,53.6,18.6,29.94,WNW,283,3.0,7.0,25,0.00,,---,0.00,VWS V14.01,2013-10-08 07:30:00,
2013-10-08 00:31:00,54.1,18.1,29.94,West,269,5.0,5.0,24,0.00,,---,0.00,VWS V14.01,2013-10-08 07:31:00,
2013-10-08 00:36:00,54.2,17.2,29.94,West,269,2.0,5.0,23,0.00,,---,0.00,VWS V14.01,2013-10-08 07:36:00,
2013-10-08 00:41:00,54.1,18.1,29.93,West,280,0.0,5.0,24,0.00,,---,0.00,VWS V14.01,2013-10-08 07:41:00,
2013-10-08 00:46:00,54.3,18.3,29.93,NW,305,2.0,5.0,24,0.00,,---,0.00,VWS V14.01,2013-10-08 07:46:00,
2013-10-08 00:51:00,54.5,17.5,29.93,WNW,283,2.0,6.0,23,0.00,,---,0.00,VWS V14.01,2013-10-08 07:51:00,
2013-10-08 00:56:00,54.4,17.4,29.94,West,280,3.0,6.0,23,0.00,,---,0.00,VWS V14.01,2013-10-08 07:56:00,
2013-10-08 01:00:00,54.3,18.3,29.93,WNW,285,3.0,6.0,24,0.00,,---,0.00,VWS V14.01,2013-10-08 08:00:00,
2013-10-08 01:01:00,54.3,18.3,29.94,West,271,2.0,5.0,24,0.00,,---,0.00,VWS V14.01,2013-10-08 08:01:00,
2013-10-08 01:06:00,54.2,17.2,29.94,SW,222,4.0,6.0,23,0.00,,---,0.00,VWS V14.01,2013-10-08 08:06:00,
2013-10-08 01:11:00,54.0,18.0,29.94,SW,232,2.0,6.0,24,0.00,,---,0.00,VWS V14.01,2013-10-08 08:11:00,
2013-10-08 01:16:00,53.4,18.5,29.94,WSW,246,1.0,6.0,25,0.00,,---,0.00,VWS V14.01,2013-10-08 08:16:00,
2013-10-08 01:21:00,53.2,18.3,29.93,WSW,255,1.0,6.0,25,0.00,,---,0.00,VWS V14.01,2013-10-08 08:21:00,
2013-10-08 01:26:00,53.3,20.2,29.93,West,273,1.0,6.0,27,0.00,,---,0.00,VWS V14.01,2013-10-08 08:26:00,
2013-10-08 01:30:00,53.5,20.4,29.94,West,278,3.0,6.0,27,0.00,,---,0.00,VWS V14.01,2013-10-08 08:30:00,
2013-10-08 01:31:00,53.6,19.6,29.94,West,269,1.0,3.0,26,0.00,,---,0.00,VWS V14.01,2013-10-08 08:31:00,
2013-10-08 01:36:00,53.7,19.6,29.94,West,278,1.0,5.0,26,0.00,,---,0.00,VWS V14.01,2013-10-08 08:36:00,
2013-10-08 01:41:00,53.2,19.2,29.93,West,274,3.0,6.0,26,0.00,,---,0.00,VWS V14.01,2013-10-08 08:41:00,
2013-10-08 01:46:00,52.9,19.0,29.93,WSW,257,2.0,6.0,26,0.00,,---,0.00,VWS V14.01,2013-10-08 08:46:00,
2013-10-08 01:51:00,52.6,18.7,29.93,West,267,1.0,6.0,26,0.00,,---,0.00,VWS V14.01,2013-10-08 08:51:00,
2013-10-08 01:56:00,52.3,19.3,29.94,WSW,242,3.0,6.0,27,0.00,,---,0.00,VWS V14.01,2013-10-08 08:56:00,
2013-10-08 02:00:00,52.3,19.3,29.93,WSW,242,3.0,6.0,27,0.00,,---,0.00,VWS V14.01,2013-10-08 09:00:00,
2013-10-08 02:01:00,52.1,19.2,29.93,West,271,1.0,4.0,27,0.00,,---,0.00,VWS V14.01,2013-10-08 09:01:00,
2013-10-08 02:06:00,51.7,21.3,29.94,SW,231,1.0,4.0,30,0.00,,---,0.00,VWS V14.01,2013-10-08 09:06:00,
2013-10-08 02:10:00,51.4,19.4,29.94,West,266,2.0,4.0,28,0.00,,---,0.00,VWS V14.01,2013-10-08 09:10:00,
2013-10-08 02:15:00,51.5,20.3,29.93,West,274,1.0,5.0,29,0.00,,---,0.00,VWS V14.01,2013-10-08 09:15:00,
2013-10-08 02:20:00,52.1,22.4,29.93,West,263,1.0,7.0,31,0.00,,---,0.00,VWS V14.01,2013-10-08 09:20:00,
2013-10-08 02:25:00,53.0,21.6,29.93,WNW,284,5.0,7.0,29,0.00,,---,0.00,VWS V14.01,2013-10-08 09:25:00,
2013-10-08 02:30:00,53.6,22.1,29.93,SW,226,3.0,6.0,29,0.00,,---,0.00,VWS V14.01,2013-10-08 09:30:00,
2013-10-08 02:35:00,53.7,22.2,29.93,WNW,287,3.0,6.0,29,0.00,,---,0.00,VWS V14.01,2013-10-08 09:35:00,
2013-10-08 02:40:00,54.1,21.7,29.93,West,262,5.0,8.0,28,0.00,,---,0.00,VWS V14.01,2013-10-08 09:40:00,
2013-10-08 02:45:00,54.2,21.0,29.93,WNW,290,4.0,8.0,27,0.00,,---,0.00,VWS V14.01,2013-10-08 09:45:00,
2013-10-08 02:50:00,54.1,21.7,29.92,West,267,3.0,9.0,28,0.00,,---,0.00,VWS V14.01,2013-10-08 09:50:00,
2013-10-08 02:55:00,54.2,21.8,29.92,WSW,242,5.0,9.0,28,0.00,,---,0.00,VWS V14.01,2013-10-08 09:55:00,
2013-10-08 03:00:00,54.0,21.6,29.92,WSW,252,1.0,4.0,28,0.00,,---,0.00,VWS V14.01,2013-10-08 10:00:00,
2013-10-08 03:05:00,54.2,21.0,29.92,WSW,248,4.0,5.0,27,0.00,,---,0.00,VWS V14.01,2013-10-08 10:05:00,
2013-10-08 03:10:00,54.5,21.2,29.91,WSW,249,1.0,5.0,27,0.00,,---,0.00,VWS V14.01,2013-10-08 10:10:00,
2013-10-08 03:15:00,54.7,21.4,29.91,West,277,2.0,5.0,27,0.00,,---,0.00,VWS V14.01,2013-10-08 10:15:00,
2013-10-08 03:20:00,54.6,20.4,29.91,West,270,1.0,5.0,26,0.00,,---,0.00,VWS V14.01,2013-10-08 10:20:00,
2013-10-08 03:25:00,54.7,22.3,29.91,WSW,239,4.0,5.0,28,0.00,,---,0.00,VWS V14.01,2013-10-08 10:25:00,
2013-10-08 03:30:00,55.3,22.8,29.91,West,260,4.0,5.0,28,0.00,,---,0.00,VWS V14.01,2013-10-08 10:30:00,
2013-10-08 03:35:00,56.3,23.6,29.91,WSW,246,5.0,6.0,28,0.00,,---,0.00,VWS V14.01,2013-10-08 10:35:00,
2013-10-08 03:40:00,56.8,24.9,29.91,West,274,3.0,6.0,29,0.00,,---,0.00,VWS V14.01,2013-10-08 10:40:00,
2013-10-08 03:45:00,57.9,25.9,29.91,West,278,5.0,7.0,29,0.00,,---,0.00,VWS V14.01,2013-10-08 10:45:00,
2013-10-08 03:50:00,58.0,25.1,29.91,West,273,2.0,7.0,28,0.00,,---,0.00,VWS V14.01,2013-10-08 10:50:00,
2013-10-08 03:55:00,58.2,26.1,29.90,West,263,2.0,8.0,29,0.00,,---,0.00,VWS V14.01,2013-10-08 10:55:00,
2013-10-08 04:00:00,57.9,25.9,29.90,WSW,252,2.0,5.0,29,0.00,,---,0.00,VWS V14.01,2013-10-08 11:00:00,
2013-10-08 04:05:00,57.6,26.4,29.90,West,263,1.0,5.0,30,0.00,,---,0.00,VWS V14.01,2013-10-08 11:05:00,
2013-10-08 04:10:00,57.2,26.1,29.90,WNW,302,1.0,5.0,30,0.00,,---,0.00,VWS V14.01,2013-10-08 11:10:00,
2013-10-08 04:15:00,57.0,26.7,29.90,WNW,302,3.0,6.0,31,0.00,,---,0.00,VWS V14.01,2013-10-08 11:15:00,
2013-10-08 04:20:00,57.4,27.0,29.90,West,261,1.0,6.0,31,0.00,,---,0.00,VWS V14.01,2013-10-08 11:20:00,
2013-10-08 04:25:00,57.6,27.2,29.90,WNW,285,5.0,6.0,31,0.00,,---,0.00,VWS V14.01,2013-10-08 11:25:00,
2013-10-08 04:30:00,58.0,27.6,29.90,WNW,283,3.0,6.0,31,0.00,,---,0.00,VWS V14.01,2013-10-08 11:30:00,
2013-10-08 04:35:00,58.2,26.9,29.90,West,277,4.0,7.0,30,0.00,,---,0.00,VWS V14.01,2013-10-08 11:35:00,
2013-10-08 04:40:00,58.3,27.0,29.90,WSW,257,2.0,7.0,30,0.00,,---,0.00,VWS V14.01,2013-10-08 11:40:00,
2013-10-08 04:45:00,58.1,26.9,29.89,WNW,288,1.0,7.0,30,0.00,,---,0.00,VWS V14.01,2013-10-08 11:45:00,
2013-10-08 04:50:00,57.6,26.4,29.89,West,266,1.0,7.0,30,0.00,,---,0.00,VWS V14.01,2013-10-08 11:50:00,
2013-10-08 04:55:00,56.7,26.4,29.89,WSW,257,1.0,7.0,31,0.00,,---,0.00,VWS V14.01,2013-10-08 11:55:00,
2013-10-08 05:00:00,55.7,26.3,29.89,West,262,3.0,3.0,32,0.00,,---,0.00,VWS V14.01,2013-10-08 12:00:00,
2013-10-08 05:05:00,55.8,27.1,29.89,WSW,238,1.0,6.0,33,0.00,,---,0.00,VWS V14.01,2013-10-08 12:05:00,
2013-10-08 05:10:00,56.0,26.6,29.89,West,263,2.0,6.0,32,0.00,,---,0.00,VWS V14.01,2013-10-08 12:10:00,
2013-10-08 05:15:00,56.0,26.6,29.89,SW,236,4.0,6.0,32,0.00,,---,0.00,VWS V14.01,2013-10-08 12:15:00,
2013-10-08 05:20:00,55.1,25.8,29.89,WSW,240,3.0,6.0,32,0.00,,---,0.00,VWS V14.01,2013-10-08 12:20:00,
2013-10-08 05:25:00,54.4,25.9,29.89,SW,225,1.0,6.0,33,0.00,,---,0.00,VWS V14.01,2013-10-08 12:25:00,
2013-10-08 05:30:00,53.7,25.3,29.89,WSW,249,1.0,4.0,33,0.00,,---,0.00,VWS V14.01,2013-10-08 12:30:00,
2013-10-08 05:35:00,53.0,25.4,29.89,SW,232,3.0,4.0,34,0.00,,---,0.00,VWS V14.01,2013-10-08 12:35:00,
2013-10-08 05:40:00,53.0,25.4,29.90,WSW,257,1.0,4.0,34,0.00,,---,0.00,VWS V14.01,2013-10-08 12:40:00,
2013-10-08 05:45:00,53.2,25.6,29.89,West,281,3.0,4.0,34,0.00,,---,0.00,VWS V14.01,2013-10-08 12:45:00,
2013-10-08 05:50:00,54.2,26.5,29.89,West,260,2.0,4.0,34,0.00,,---,0.00,VWS V14.01,2013-10-08 12:50:00,
2013-10-08 05:55:00,54.7,26.2,29.89,West,277,1.0,4.0,33,0.00,,---,0.00,VWS V14.01,2013-10-08 12:55:00,
2013-10-08 06:00:00,55.2,26.6,29.89,West,270,1.0,4.0,33,0.00,,---,0.00,VWS V14.01,2013-10-08 13:00:00,
2013-10-08 06:05:00,55.4,26.0,29.89,SW,232,2.0,4.0,32,0.00,,---,0.00,VWS V14.01,2013-10-08 13:05:00,
2013-10-08 06:10:00,55.5,26.1,29.89,WNW,295,5.0,6.0,32,0.00,,---,0.00,VWS V14.01,2013-10-08 13:10:00,
2013-10-08 06:15:00,56.4,26.2,29.90,WSW,255,2.0,7.0,31,0.00,,---,0.00,VWS V14.01,2013-10-08 13:15:00,
2013-10-08 06:20:00,57.0,25.9,29.89,WSW,252,2.0,7.0,30,0.00,,---,0.00,VWS V14.01,2013-10-08 13:20:00,
2013-10-08 06:25:00,57.0,25.9,29.89,WSW,251,5.0,7.0,30,0.00,,---,0.00,VWS V14.01,2013-10-08 13:25:00,
2013-10-08 06:30:00,57.5,25.5,29.89,West,264,2.0,8.0,29,0.00,,---,0.00,VWS V14.01,2013-10-08 13:30:00,
2013-10-08 06:35:00,57.7,25.7,29.89,WSW,250,2.0,8.0,29,0.00,,---,0.00,VWS V14.01,2013-10-08 13:35:00,
2013-10-08 06:40:00,57.7,25.7,29.89,WSW,249,2.0,8.0,29,0.00,,---,0.00,VWS V14.01,2013-10-08 13:40:00,
2013-10-08 06:45:00,57.7,25.7,29.89,WSW,257,5.0,9.0,29,0.00,,---,0.00,VWS V14.01,2013-10-08 13:45:00,
2013-10-08 06:50:00,57.7,25.7,29.89,West,266,3.0,9.0,29,0.00,,---,0.00,VWS V14.01,2013-10-08 13:50:00,
2013-10-08 06:55:00,57.3,25.3,29.89,West,278,2.0,9.0,29,0.00,,---,0.00,VWS V14.01,2013-10-08 13:55:00,
2013-10-08 07:00:00,57.2,26.1,29.89,SW,228,4.0,5.0,30,0.00,,---,0.00,VWS V14.01,2013-10-08 14:00:00,
2013-10-08 07:05:00,57.1,26.0,29.90,WSW,239,2.0,6.0,30,0.00,,---,0.00,VWS V14.01,2013-10-08 14:05:00,
2013-10-08 07:10:00,57.0,25.9,29.89,West,277,2.0,6.0,30,0.00,,---,0.00,VWS V14.01,2013-10-08 14:10:00,
2013-10-08 07:15:00,57.4,25.4,29.89,SW,229,2.0,6.0,29,0.00,,---,0.00,VWS V14.01,2013-10-08 14:15:00,
2013-10-08 07:20:00,57.7,25.7,29.90,West,264,2.0,6.0,29,0.00,,---,0.00,VWS V14.01,2013-10-08 14:20:00,
2013-10-08 07:25:00,58.3,26.2,29.90,West,269,2.0,6.0,29,0.00,,---,0.00,VWS V14.01,2013-10-08 14:25:00,
2013-10-08 07:30:00,58.6,26.5,29.90,WNW,285,3.0,5.0,29,0.00,,---,0.00,VWS V14.01,2013-10-08 14:30:00,
2013-10-08 07:35:00,58.8,26.6,29.90,WNW,285,5.0,6.0,29,0.00,,---,0.00,VWS V14.01,2013-10-08 14:35:00,
2013-10-08 07:40:00,58.9,26.7,29.90,WSW,252,1.0,6.0,29,0.00,,---,0.00,VWS V14.01,2013-10-08 14:40:00,
2013-10-08 07:45:00,58.3,27.0,29.90,WNW,290,2.0,6.0,30,0.00,,---,0.00,VWS V14.01,2013-10-08 14:45:00,
2013-10-08 07:50:00,57.0,26.7,29.90,West,280,3.0,6.0,31,0.00,,---,0.00,VWS V14.01,2013-10-08 14:50:00,
2013-10-08 07:55:00,56.6,27.1,29.90,WSW,243,5.0,6.0,32,0.00,,---,0.00,VWS V14.01,2013-10-08 14:55:00,
2013-10-08 08:00:00,56.9,27.4,29.90,West,269,7.0,8.0,32,0.00,,---,0.00,VWS V14.01,2013-10-08 15:00:00,
2013-10-08 08:05:00,57.7,28.1,29.90,West,269,5.0,8.0,32,0.00,,---,0.00,VWS V14.01,2013-10-08 15:05:00,
2013-10-08 08:10:00,58.3,27.8,29.91,WNW,293,3.0,8.0,31,0.00,,---,0.00,VWS V14.01,2013-10-08 15:10:00,
2013-10-08 08:15:00,59.2,27.8,29.91,WSW,255,3.0,8.0,30,0.00,,---,0.00,VWS V14.01,2013-10-08 15:15:00,
2013-10-08 08:20:00,60.0,26.8,29.91,WNW,293,3.0,8.0,28,0.00,,---,0.00,VWS V14.01,2013-10-08 15:20:00,
2013-10-08 08:25:00,60.9,26.7,29.91,WNW,285,3.0,8.0,27,0.00,,---,0.00,VWS V14.01,2013-10-08 15:25:00,
2013-10-08 08:30:00,61.8,26.6,29.91,West,262,4.0,7.0,26,0.00,,---,0.00,VWS V14.01,2013-10-08 15:30:00,
2013-10-08 08:35:00,62.7,26.4,29.91,West,281,1.0,7.0,25,0.00,,---,0.00,VWS V14.01,2013-10-08 15:35:00,
2013-10-08 08:40:00,63.7,26.3,29.91,SW,215,3.0,7.0,24,0.00,,---,0.00,VWS V14.01,2013-10-08 15:40:00,
2013-10-08 08:45:00,64.6,26.0,29.91,West,273,5.0,8.0,23,0.00,,---,0.00,VWS V14.01,2013-10-08 15:45:00,
2013-10-08 08:50:00,65.6,25.8,29.91,NNW,327,4.0,8.0,22,0.00,,---,0.00,VWS V14.01,2013-10-08 15:50:00,
2013-10-08 08:55:00,66.6,25.5,29.91,NW,311,7.0,9.0,21,0.00,,---,0.00,VWS V14.01,2013-10-08 15:55:00,
2013-10-08 09:00:00,67.3,24.9,29.91,West,278,2.0,9.0,20,0.00,,---,0.00,VWS V14.01,2013-10-08 16:00:00,
2013-10-08 09:05:00,67.9,25.4,29.91,WNW,291,3.0,9.0,20,0.00,,---,0.00,VWS V14.01,2013-10-08 16:05:00,
2013-10-08 09:10:00,68.3,25.7,29.91,WNW,283,4.0,11.0,20,0.00,,---,0.00,VWS V14.01,2013-10-08 16:10:00,
2013-10-08 09:15:00,68.8,26.1,29.91,WNW,285,3.0,11.0,20,0.00,,---,0.00,VWS V14.01,2013-10-08 16:15:00,
2013-10-08 09:20:00,69.1,25.1,29.91,NW,315,5.0,11.0,19,0.00,,---,0.00,VWS V14.01,2013-10-08 16:20:00,
2013-10-08 09:25:00,69.6,25.5,29.91,NW,305,6.0,11.0,19,0.00,,---,0.00,VWS V14.01,2013-10-08 16:25:00,
2013-10-08 09:30:00,70.2,24.7,29.91,West,266,5.0,6.0,18,0.00,,---,0.00,VWS V14.01,2013-10-08 16:30:00,
2013-10-08 09:35:00,70.8,26.5,29.91,NW,323,2.0,8.0,19,0.00,,---,0.00,VWS V14.01,2013-10-08 16:35:00,
2013-10-08 09:40:00,71.3,25.6,29.91,West,266,3.0,8.0,18,0.00,,---,0.00,VWS V14.01,2013-10-08 16:40:00,
2013-10-08 09:45:00,71.8,26.0,29.91,WNW,293,5.0,8.0,18,0.00,,---,0.00,VWS V14.01,2013-10-08 16:45:00,
2013-10-08 09:50:00,71.5,25.8,29.90,NW,319,4.0,8.0,18,0.00,,---,0.00,VWS V14.01,2013-10-08 16:50:00,
2013-10-08 09:55:00,71.6,25.9,29.90,West,259,3.0,9.0,18,0.00,,---,0.00,VWS V14.01,2013-10-08 16:55:00,
2013-10-08 10:00:00,71.9,24.8,29.90,West,264,2.0,7.0,17,0.00,,---,0.00,VWS V14.01,2013-10-08 17:00:00,
2013-10-08 10:05:00,72.2,26.4,29.90,West,276,3.0,8.0,18,0.00,,---,0.00,VWS V14.01,2013-10-08 17:05:00,
2013-10-08 10:10:00,72.5,27.9,29.90,WNW,296,4.0,8.0,19,0.00,,---,0.00,VWS V14.01,2013-10-08 17:10:00,
2013-10-08 10:15:00,72.7,25.4,29.90,SW,229,0.0,9.0,17,0.00,,---,0.00,VWS V14.01,2013-10-08 17:15:00,
2013-10-08 10:20:00,73.1,25.7,29.90,WNW,290,4.0,9.0,17,0.00,,---,0.00,VWS V14.01,2013-10-08 17:20:00,
2013-10-08 10:25:00,72.9,27.0,29.90,WSW,255,4.0,11.0,18,0.00,,---,0.00,VWS V14.01,2013-10-08 17:25:00,
2013-10-08 10:30:00,73.1,27.1,29.90,West,280,10.0,10.0,18,0.00,,---,0.00,VWS V14.01,2013-10-08 17:30:00,
2013-10-08 10:35:00,73.2,27.2,29.90,West,263,7.0,10.0,18,0.00,,---,0.00,VWS V14.01,2013-10-08 17:35:00,
2013-10-08 10:40:00,73.2,25.8,29.90,West,260,5.0,11.0,17,0.00,,---,0.00,VWS V14.01,2013-10-08 17:40:00,
2013-10-08 10:45:00,73.3,25.9,29.90,West,264,3.0,12.0,17,0.00,,---,0.00,VWS V14.01,2013-10-08 17:45:00,
2013-10-08 10:50:00,73.9,26.4,29.89,SW,232,4.0,12.0,17,0.00,,---,0.00,VWS V14.01,2013-10-08 17:50:00,
2013-10-08 10:55:00,74.3,25.2,29.89,West,269,3.0,12.0,16,0.00,,---,0.00,VWS V14.01,2013-10-08 17:55:00,
2013-10-08 11:00:00,74.2,26.6,29.89,WNW,294,5.0,10.0,17,0.00,,---,0.00,VWS V14.01,2013-10-08 18:00:00,
2013-10-08 11:05:00,74.5,26.9,29.89,WNW,302,3.0,12.0,17,0.00,,---,0.00,VWS V14.01,2013-10-08 18:05:00,
2013-10-08 11:10:00,74.5,26.9,29.89,WSW,248,2.0,12.0,17,0.00,,---,0.00,VWS V14.01,2013-10-08 18:10:00,
2013-10-08 11:15:00,74.6,27.0,29.89,WNW,299,6.0,12.0,17,0.00,,---,0.00,VWS V14.01,2013-10-08 18:15:00,
2013-10-08 11:20:00,75.0,25.8,29.89,WSW,246,2.0,12.0,16,0.00,,---,0.00,VWS V14.01,2013-10-08 18:20:00,
2013-10-08 11:25:00,75.1,25.9,29.89,NW,324,7.0,12.0,16,0.00,,---,0.00,VWS V14.01,2013-10-08 18:25:00,
2013-10-08 11:30:00,75.4,26.1,29.88,WNW,300,9.0,9.0,16,0.00,,---,0.00,VWS V14.01,2013-10-08 18:30:00,
2013-10-08 11:35:00,75.5,24.7,29.88,West,263,6.0,9.0,15,0.00,,---,0.00,VWS V14.01,2013-10-08 18:35:00,
2013-10-08 11:40:00,75.5,26.2,29.88,West,279,5.0,9.0,16,0.00,,---,0.00,VWS V14.01,2013-10-08 18:40:00,
2013-10-08 11:45:00,76.1,26.7,29.88,WNW,283,7.0,16.0,16,0.00,,---,0.00,VWS V14.01,2013-10-08 18:45:00,
2013-10-08 11:50:00,76.3,26.9,29.88,West,279,3.0,16.0,16,0.00,,---,0.00,VWS V14.01,2013-10-08 18:50:00,
2013-10-08 11:55:00,76.3,25.3,29.88,West,277,2.0,16.0,15,0.00,,---,0.00,VWS V14.01,2013-10-08 18:55:00,
2013-10-08 12:00:00,76.1,25.1,29.88,NW,313,6.0,11.0,15,0.00,,---,0.00,VWS V14.01,2013-10-08 19:00:00,
2013-10-08 12:05:00,75.9,26.5,29.87,WSW,249,5.0,11.0,16,0.00,,---,0.00,VWS V14.01,2013-10-08 19:05:00,
2013-10-08 12:10:00,76.3,25.3,29.87,NW,305,8.0,11.0,15,0.00,,---,0.00,VWS V14.01,2013-10-08 19:10:00,
2013-10-08 12:15:00,76.3,25.3,29.87,NW,312,3.0,11.0,15,0.00,,---,0.00,VWS V14.01,2013-10-08 19:15:00,
2013-10-08 12:20:00,76.3,26.9,29.87,SSE,162,5.0,11.0,16,0.00,,---,0.00,VWS V14.01,2013-10-08 19:20:00,
2013-10-08 12:25:00,76.1,26.7,29.87,WNW,297,4.0,11.0,16,0.00,,---,0.00,VWS V14.01,2013-10-08 19:25:00,
2013-10-08 12:30:00,75.9,26.5,29.87,West,278,3.0,8.0,16,0.00,,---,0.00,VWS V14.01,2013-10-08 19:30:00,
2013-10-08 12:35:00,76.1,26.7,29.87,West,259,3.0,10.0,16,0.00,,---,0.00,VWS V14.01,2013-10-08 19:35:00,
2013-10-08 12:40:00,76.5,27.0,29.86,WNW,300,3.0,10.0,16,0.00,,---,0.00,VWS V14.01,2013-10-08 19:40:00,
2013-10-08 12:45:00,76.6,27.1,29.86,WNW,299,3.0,12.0,16,0.00,,---,0.00,VWS V14.01,2013-10-08 19:45:00,
2013-10-08 12:50:00,76.6,27.1,29.86,West,280,2.0,12.0,16,0.00,,---,0.00,VWS V14.01,2013-10-08 19:50:00,
2013-10-08 12:55:00,76.7,27.2,29.85,SW,233,3.0,12.0,16,0.00,,---,0.00,VWS V14.01,2013-10-08 19:55:00,
2013-10-08 13:00:00,76.6,27.1,29.85,West,278,4.0,6.0,16,0.00,,---,0.00,VWS V14.01,2013-10-08 20:00:00,
2013-10-08 13:05:00,76.9,27.3,29.85,West,267,4.0,7.0,16,0.00,,---,0.00,VWS V14.01,2013-10-08 20:05:00,
2013-10-08 13:10:00,77.2,27.6,29.85,NW,305,6.0,11.0,16,0.00,,---,0.00,VWS V14.01,2013-10-08 20:10:00,
2013-10-08 13:15:00,77.0,27.4,29.85,WNW,293,5.0,13.0,16,0.00,,---,0.00,VWS V14.01,2013-10-08 20:15:00,
2013-10-08 13:20:00,76.9,27.3,29.84,WNW,291,3.0,13.0,16,0.00,,---,0.00,VWS V14.01,2013-10-08 20:20:00,
2013-10-08 13:25:00,77.0,27.4,29.84,SW,231,6.0,13.0,16,0.00,,---,0.00,VWS V14.01,2013-10-08 20:25:00,
2013-10-08 13:30:00,77.0,27.4,29.84,WSW,245,4.0,9.0,16,0.00,,---,0.00,VWS V14.01,2013-10-08 20:30:00,
2013-10-08 13:35:00,76.7,27.2,29.84,WSW,257,8.0,9.0,16,0.00,,---,0.00,VWS V14.01,2013-10-08 20:35:00,
2013-10-08 13:40:00,77.2,26.0,29.84,NW,305,12.0,15.0,15,0.00,,---,0.00,VWS V14.01,2013-10-08 20:40:00,
2013-10-08 13:45:00,76.6,25.5,29.84,NW,319,14.0,15.0,15,0.00,,---,0.00,VWS V14.01,2013-10-08 20:45:00,
2013-10-08 13:50:00,76.1,25.1,29.84,NW,322,11.0,15.0,15,0.00,,---,0.00,VWS V14.01,2013-10-08 20:50:00,
2013-10-08 13:55:00,75.9,26.5,29.83,NNW,328,8.0,15.0,16,0.00,,---,0.00,VWS V14.01,2013-10-08 20:55:00,
2013-10-08 14:00:00,75.4,26.1,29.83,WNW,302,10.0,11.0,16,0.00,,---,0.00,VWS V14.01,2013-10-08 21:00:00,
2013-10-08 14:05:00,75.6,24.7,29.83,NNW,335,9.0,17.0,15,0.00,,---,0.00,VWS V14.01,2013-10-08 21:05:00,
2013-10-08 14:10:00,75.8,24.9,29.83,WNW,302,6.0,17.0,15,0.00,,---,0.00,VWS V14.01,2013-10-08 21:10:00,
2013-10-08 14:15:00,76.0,26.6,29.83,West,274,7.0,17.0,16,0.00,,---,0.00,VWS V14.01,2013-10-08 21:15:00,
2013-10-08 14:20:00,75.9,26.5,29.83,NW,308,14.0,17.0,16,0.00,,---,0.00,VWS V14.01,2013-10-08 21:20:00,
2013-10-08 14:25:00,75.7,26.4,29.83,NW,309,10.0,17.0,16,0.00,,---,0.00,VWS V14.01,2013-10-08 21:25:00,
2013-10-08 14:30:00,76.0,25.1,29.83,WNW,289,6.0,12.0,15,0.00,,---,0.00,VWS V14.01,2013-10-08 21:30:00,
2013-10-08 14:35:00,75.9,26.5,29.82,WNW,291,3.0,12.0,16,0.00,,---,0.00,VWS V14.01,2013-10-08 21:35:00,
2013-10-08 14:40:00,76.2,26.8,29.82,WNW,297,10.0,14.0,16,0.00,,---,0.00,VWS V14.01,2013-10-08 21:40:00,
2013-10-08 14:45:00,76.2,26.8,29.82,WSW,249,4.0,14.0,16,0.00,,---,0.00,VWS V14.01,2013-10-08 21:45:00,
2013-10-08 14:50:00,76.2,26.8,29.82,NW,312,6.0,14.0,16,0.00,,---,0.00,VWS V14.01,2013-10-08 21:50:00,
2013-10-08 14:55:00,75.9,26.5,29.82,NW,311,3.0,14.0,16,0.00,,---,0.00,VWS V14.01,2013-10-08 21:55:00,
2013-10-08 15:00:00,76.3,26.9,29.82,SW,228,5.0,12.0,16,0.00,,---,0.00,VWS V14.01,2013-10-08 22:00:00,
2013-10-08 15:05:00,76.6,31.3,29.81,SW,224,2.0,12.0,19,0.00,,---,0.00,VWS V14.01,2013-10-08 22:05:00,
2013-10-08 15:10:00,76.3,32.3,29.81,WSW,252,5.0,12.0,20,0.00,,---,0.00,VWS V14.01,2013-10-08 22:10:00,
2013-10-08 15:15:00,76.2,31.0,29.81,WNW,294,0.0,12.0,19,0.00,,---,0.00,VWS V14.01,2013-10-08 22:15:00,
2013-10-08 15:20:00,76.2,32.2,29.81,West,277,4.0,12.0,20,0.00,,---,0.00,VWS V14.01,2013-10-08 22:20:00,
2013-10-08 15:25:00,75.9,33.2,29.81,West,277,4.0,12.0,21,0.00,,---,0.00,VWS V14.01,2013-10-08 22:25:00,
2013-10-08 15:30:00,75.8,34.3,29.81,WNW,300,5.0,8.0,22,0.00,,---,0.00,VWS V14.01,2013-10-08 22:30:00,
2013-10-08 15:35:00,75.7,33.0,29.81,WSW,252,1.0,10.0,21,0.00,,---,0.00,VWS V14.01,2013-10-08 22:35:00,
2013-10-08 15:40:00,76.0,34.5,29.81,SW,236,2.0,10.0,22,0.00,,---,0.00,VWS V14.01,2013-10-08 22:40:00,
2013-10-08 15:45:00,75.9,36.5,29.79,West,267,7.0,10.0,24,0.00,,---,0.00,VWS V14.01,2013-10-08 22:45:00,
2013-10-08 15:50:00,75.7,37.4,29.80,South,176,3.0,11.0,25,0.00,,---,0.00,VWS V14.01,2013-10-08 22:50:00,
2013-10-08 15:55:00,75.5,37.2,29.80,SSW,195,12.0,12.0,25,0.00,,---,0.00,VWS V14.01,2013-10-08 22:55:00,
2013-10-08 16:00:00,75.4,38.2,29.80,South,183,6.0,8.0,26,0.00,,---,0.00,VWS V14.01,2013-10-08 23:00:00,
2013-10-08 16:05:00,75.2,38.0,29.79,SSW,211,5.0,15.0,26,0.00,,---,0.00,VWS V14.01,2013-10-08 23:05:00,
2013-10-08 16:10:00,74.6,37.5,29.79,West,264,3.0,15.0,26,0.00,,---,0.00,VWS V14.01,2013-10-08 23:10:00,
2013-10-08 16:15:00,74.7,37.6,29.79,WSW,250,3.0,15.0,26,0.00,,---,0.00,VWS V14.01,2013-10-08 23:15:00,
2013-10-08 16:20:00,74.3,37.2,29.79,South,184,5.0,16.0,26,0.00,,---,0.00,VWS V14.01,2013-10-08 23:20:00,
2013-10-08 16:25:00,74.2,37.1,29.78,South,184,10.0,16.0,26,0.00,,---,0.00,VWS V14.01,2013-10-08 23:25:00,
2013-10-08 16:30:00,74.0,37.9,29.78,SSW,197,12.0,13.0,27,0.00,,---,0.00,VWS V14.01,2013-10-08 23:30:00,
2013-10-08 16:35:00,73.5,38.4,29.78,South,174,6.0,14.0,28,0.00,,---,0.00,VWS V14.01,2013-10-08 23:35:00,
2013-10-08 16:40:00,73.2,39.1,29.78,SW,219,6.0,15.0,29,0.00,,---,0.00,VWS V14.01,2013-10-08 23:40:00,
2013-10-08 16:45:00,72.9,39.7,29.78,SW,218,7.0,15.0,30,0.00,,---,0.00,VWS V14.01,2013-10-08 23:45:00,
2013-10-08 16:50:00,72.5,40.2,29.78,WSW,245,2.0,15.0,31,0.00,,---,0.00,VWS V14.01,2013-10-08 23:50:00,
2013-10-08 16:55:00,72.4,40.1,29.78,SW,225,3.0,15.0,31,0.00,,---,0.00,VWS V14.01,2013-10-08 23:55:00,
2013-10-08 17:00:00,71.8,41.2,29.78,South,188,5.0,16.0,33,0.00,,---,0.00,VWS V14.01,2013-10-09 00:00:00,
2013-10-08 17:05:00,71.3,42.3,29.78,SSW,200,12.0,16.0,35,0.00,,---,0.00,VWS V14.01,2013-10-09 00:05:00,
2013-10-08 17:10:00,70.7,41.7,29.78,SSW,201,7.0,16.0,35,0.00,,---,0.00,VWS V14.01,2013-10-09 00:10:00,
2013-10-08 17:15:00,70.3,42.1,29.78,SW,218,6.0,16.0,36,0.00,,---,0.00,VWS V14.01,2013-10-09 00:15:00,
2013-10-08 17:20:00,69.7,42.3,29.78,SW,215,13.0,17.0,37,0.00,,---,0.00,VWS V14.01,2013-10-09 00:20:00,
2013-10-08 17:25:00,69.0,42.4,29.78,SSW,198,5.0,17.0,38,0.00,,---,0.00,VWS V14.01,2013-10-09 00:25:00,
2013-10-08 17:30:00,68.7,42.1,29.77,South,186,6.0,17.0,38,0.00,,---,0.00,VWS V14.01,2013-10-09 00:30:00,
2013-10-08 17:35:00,68.3,43.1,29.77,SW,217,7.0,17.0,40,0.00,,---,0.00,VWS V14.01,2013-10-09 00:35:00,
2013-10-08 17:40:00,67.8,43.3,29.78,WSW,242,10.0,17.0,41,0.00,,---,0.00,VWS V14.01,2013-10-09 00:40:00,
2013-10-08 17:45:00,67.4,43.5,29.78,SW,228,11.0,17.0,42,0.00,,---,0.00,VWS V14.01,2013-10-09 00:45:00,
2013-10-08 17:50:00,66.9,43.7,29.77,SSW,210,7.0,17.0,43,0.00,,---,0.00,VWS V14.01,2013-10-09 00:50:00,
2013-10-08 17:55:00,66.6,44.0,29.78,SSW,210,15.0,17.0,44,0.00,,---,0.00,VWS V14.01,2013-10-09 00:55:00,
2013-10-08 18:00:00,66.0,43.5,29.77,WSW,243,10.0,13.0,44,0.00,,---,0.00,VWS V14.01,2013-10-09 01:00:00,
2013-10-08 18:05:00,65.2,44.5,29.78,SSW,211,8.0,17.0,47,0.00,,---,0.00,VWS V14.01,2013-10-09 01:05:00,
2013-10-08 18:10:00,64.4,43.8,29.77,SSW,203,14.0,17.0,47,0.00,,---,0.00,VWS V14.01,2013-10-09 01:10:00,
2013-10-08 18:15:00,63.8,43.8,29.78,SSW,209,7.0,17.0,48,0.00,,---,0.00,VWS V14.01,2013-10-09 01:15:00,
2013-10-08 18:20:00,63.2,43.7,29.78,West,277,2.0,17.0,49,0.00,,---,0.00,VWS V14.01,2013-10-09 01:20:00,
2013-10-08 18:25:00,62.8,43.4,29.78,SSW,205,4.0,17.0,49,0.00,,---,0.00,VWS V14.01,2013-10-09 01:25:00,
2013-10-08 18:30:00,62.5,44.2,29.78,SW,221,6.0,12.0,51,0.00,,---,0.00,VWS V14.01,2013-10-09 01:30:00,
2013-10-08 18:35:00,62.0,43.2,29.78,SSW,194,6.0,12.0,50,0.00,,---,0.00,VWS V14.01,2013-10-09 01:35:00,
2013-10-08 18:40:00,61.7,42.9,29.77,SSW,204,0.0,12.0,50,0.00,,---,0.00,VWS V14.01,2013-10-09 01:40:00,
2013-10-08 18:45:00,61.4,43.1,29.77,WSW,254,1.0,12.0,51,0.00,,---,0.00,VWS V14.01,2013-10-09 01:45:00,
2013-10-08 18:50:00,61.2,43.0,29.77,SW,218,6.0,12.0,51,0.00,,---,0.00,VWS V14.01,2013-10-09 01:50:00,
2013-10-08 18:55:00,60.9,43.2,29.77,SSE,152,1.0,12.0,52,0.00,,---,0.00,VWS V14.01,2013-10-09 01:55:00,
2013-10-08 19:00:00,60.7,43.0,29.77,South,170,1.0,11.0,52,0.00,,---,0.00,VWS V14.01,2013-10-09 02:00:00,
2013-10-08 19:05:00,60.4,42.7,29.77,WSW,245,0.0,11.0,52,0.00,,---,0.00,VWS V14.01,2013-10-09 02:05:00,
2013-10-08 19:10:00,60.3,42.6,29.78,SSW,208,1.0,11.0,52,0.00,,---,0.00,VWS V14.01,2013-10-09 02:10:00,
2013-10-08 19:15:00,60.2,42.5,29.78,SW,222,1.0,11.0,52,0.00,,---,0.00,VWS V14.01,2013-10-09 02:15:00,
2013-10-08 19:20:00,60.1,41.9,29.78,West,272,0.0,11.0,51,0.00,,---,0.00,VWS V14.01,2013-10-09 02:20:00,
2013-10-08 19:25:00,60.0,40.8,29.78,WNW,302,4.0,11.0,49,0.00,,---,0.00,VWS V14.01,2013-10-09 02:25:00,
2013-10-08 19:30:00,60.0,40.8,29.78,West,270,2.0,9.0,49,0.00,,---,0.00,VWS V14.01,2013-10-09 02:30:00,
2013-10-08 19:35:00,59.7,40.5,29.78,West,270,1.0,9.0,49,0.00,,---,0.00,VWS V14.01,2013-10-09 02:35:00,
2013-10-08 19:40:00,59.1,40.5,29.78,West,277,2.0,9.0,50,0.00,,---,0.00,VWS V14.01,2013-10-09 02:40:00,
2013-10-08 19:45:00,58.7,40.1,29.78,WSW,248,0.0,9.0,50,0.00,,---,0.00,VWS V14.01,2013-10-09 02:45:00,
2013-10-08 19:50:00,58.4,40.4,29.78,WSW,245,2.0,9.0,51,0.00,,---,0.00,VWS V14.01,2013-10-09 02:50:00,
2013-10-08 19:55:00,58.1,40.1,29.78,WSW,245,0.0,9.0,51,0.00,,---,0.00,VWS V14.01,2013-10-09 02:55:00,
2013-10-08 20:00:00,58.0,40.5,29.78,WSW,242,1.0,3.0,52,0.00,,---,0.00,VWS V14.01,2013-10-09 03:00:00,
2013-10-08 20:05:00,58.3,41.8,29.78,West,280,2.0,6.0,54,0.00,,---,0.00,VWS V14.01,2013-10-09 03:05:00,
2013-10-08 20:10:00,58.4,40.9,29.78,SW,229,0.0,6.0,52,0.00,,---,0.00,VWS V14.01,2013-10-09 03:10:00,
2013-10-08 20:15:00,58.0,41.0,29.78,West,280,1.0,6.0,53,0.00,,---,0.00,VWS V14.01,2013-10-09 03:15:00,
2013-10-08 20:20:00,58.4,41.3,29.78,WSW,255,2.0,6.0,53,0.00,,---,0.00,VWS V14.01,2013-10-09 03:20:00,
2013-10-08 20:25:00,58.6,42.0,29.78,WNW,288,7.0,7.0,54,0.00,,---,0.00,VWS V14.01,2013-10-09 03:25:00,
2013-10-08 20:30:00,59.2,42.1,29.78,West,277,2.0,5.0,53,0.00,,---,0.00,VWS V14.01,2013-10-09 03:30:00,
2013-10-08 20:35:00,59.0,42.4,29.78,West,270,1.0,6.0,54,0.00,,---,0.00,VWS V14.01,2013-10-09 03:35:00,
2013-10-08 20:40:00,59.1,42.0,29.78,WNW,285,3.0,6.0,53,0.00,,---,0.00,VWS V14.01,2013-10-09 03:40:00,
2013-10-08 20:45:00,59.2,42.1,29.78,WNW,294,3.0,8.0,53,0.00,,---,0.00,VWS V14.01,2013-10-09 03:45:00,
2013-10-08 20:50:00,59.2,42.6,29.78,WSW,257,3.0,8.0,54,0.00,,---,0.00,VWS V14.01,2013-10-09 03:50:00,
2013-10-08 20:55:00,58.9,42.3,29.78,SW,224,1.0,8.0,54,0.00,,---,0.00,VWS V14.01,2013-10-09 03:55:00,
2013-10-08 21:00:00,58.8,41.7,29.78,West,280,2.0,4.0,53,0.00,,---,0.00,VWS V14.01,2013-10-09 04:00:00,
2013-10-08 21:01:00,58.8,41.7,29.78,West,259,3.0,6.0,53,0.00,,---,0.00,VWS V14.01,2013-10-09 04:01:00,
2013-10-08 21:06:00,58.8,41.7,29.78,West,276,1.0,6.0,53,0.00,,---,0.00,VWS V14.01,2013-10-09 04:06:00,
2013-10-08 21:11:00,58.6,41.5,29.78,NW,319,3.0,6.0,53,0.00,,---,0.00,VWS V14.01,2013-10-09 04:11:00,
2013-10-08 21:16:00,58.3,41.3,29.78,West,264,1.0,6.0,53,0.00,,---,0.00,VWS V14.01,2013-10-09 04:16:00,
2013-10-08 21:21:00,58.2,41.2,29.78,WSW,252,0.0,6.0,53,0.00,,---,0.00,VWS V14.01,2013-10-09 04:21:00,
2013-10-08 21:26:00,58.0,40.5,29.78,West,274,1.0,6.0,52,0.00,,---,0.00,VWS V14.01,2013-10-09 04:26:00,
2013-10-08 21:30:00,57.8,40.3,29.78,West,259,0.0,6.0,52,0.00,,---,0.00,VWS V14.01,2013-10-09 04:30:00,
2013-10-08 21:31:00,57.3,40.3,29.78,WNW,300,2.0,2.0,53,0.00,,---,0.00,VWS V14.01,2013-10-09 04:31:00,
2013-10-08 21:36:00,57.0,41.0,29.78,WNW,300,2.0,7.0,55,0.00,,---,0.00,VWS V14.01,2013-10-09 04:36:00,
2013-10-08 21:41:00,57.0,40.5,29.77,WSW,252,3.0,7.0,54,0.00,,---,0.00,VWS V14.01,2013-10-09 04:41:00,
2013-10-08 21:46:00,57.2,41.2,29.77,West,267,1.0,7.0,55,0.00,,---,0.00,VWS V14.01,2013-10-09 04:46:00,
2013-10-08 21:51:00,56.8,41.3,29.77,NW,305,2.0,7.0,56,0.00,,---,0.00,VWS V14.01,2013-10-09 04:51:00,
2013-10-08 21:56:00,56.6,42.0,29.77,West,269,0.0,7.0,58,0.00,,---,0.00,VWS V14.01,2013-10-09 04:56:00,
2013-10-08 22:00:00,56.5,42.4,29.76,West,280,1.0,7.0,59,0.00,,---,0.00,VWS V14.01,2013-10-09 05:00:00,
2013-10-08 22:01:00,56.3,42.6,29.76,WNW,300,2.0,3.0,60,0.00,,---,0.00,VWS V14.01,2013-10-09 05:01:00,
2013-10-08 22:06:00,55.9,43.1,29.76,West,266,4.0,5.0,62,0.00,,---,0.00,VWS V14.01,2013-10-09 05:06:00,
2013-10-08 22:11:00,55.7,43.3,29.76,WNW,288,2.0,5.0,63,0.00,,---,0.00,VWS V14.01,2013-10-09 05:11:00,
2013-10-08 22:16:00,55.5,43.5,29.76,WNW,291,3.0,6.0,64,0.00,,---,0.00,VWS V14.01,2013-10-09 05:16:00,
2013-10-08 22:21:00,55.5,43.9,29.76,WNW,302,1.0,6.0,65,0.00,,---,0.00,VWS V14.01,2013-10-09 05:21:00,
2013-10-08 22:26:00,55.2,44.0,29.76,WNW,283,3.0,6.0,66,0.00,,---,0.00,VWS V14.01,2013-10-09 05:26:00,
2013-10-08 22:30:00,55.2,44.1,29.76,West,273,1.0,6.0,66,0.00,,---,0.00,VWS V14.01,2013-10-09 05:30:00,
2013-10-08 22:31:00,55.1,44.3,29.76,NW,309,2.0,7.0,67,0.00,,---,0.00,VWS V14.01,2013-10-09 05:31:00,
2013-10-08 22:36:00,54.8,44.1,29.76,SW,228,2.0,7.0,67,0.00,,---,0.00,VWS V14.01,2013-10-09 05:36:00,
2013-10-08 22:41:00,54.5,43.8,29.76,West,262,1.0,7.0,67,0.00,,---,0.00,VWS V14.01,2013-10-09 05:41:00,
2013-10-08 22:46:00,54.3,43.6,29.76,West,277,1.0,7.0,67,0.00,,---,0.00,VWS V14.01,2013-10-09 05:46:00,
2013-10-08 22:51:00,54.0,42.5,29.76,SW,228,0.0,7.0,65,0.00,,---,0.00,VWS V14.01,2013-10-09 05:51:00,
2013-10-08 22:56:00,53.6,41.7,29.76,SSW,195,2.0,7.0,64,0.00,,---,0.00,VWS V14.01,2013-10-09 05:56:00,
2013-10-08 23:00:00,53.6,41.7,29.76,SW,233,2.0,7.0,64,0.00,,---,0.00,VWS V14.01,2013-10-09 06:00:00,
2013-10-08 23:01:00,53.6,41.3,29.76,West,263,0.0,2.0,63,0.00,,---,0.00,VWS V14.01,2013-10-09 06:01:00,
2013-10-08 23:06:00,53.3,41.0,29.76,SW,235,0.0,2.0,63,0.00,,---,0.00,VWS V14.01,2013-10-09 06:06:00,
2013-10-08 23:11:00,53.0,41.6,29.76,SE,141,0.0,2.0,65,0.00,,---,0.00,VWS V14.01,2013-10-09 06:11:00,
2013-10-08 23:16:00,53.1,41.7,29.77,West,269,2.0,5.0,65,0.00,,---,0.00,VWS V14.01,2013-10-09 06:16:00,
2013-10-08 23:21:00,53.0,42.0,29.77,West,260,0.0,5.0,66,0.00,,---,0.00,VWS V14.01,2013-10-09 06:21:00,
2013-10-08 23:26:00,52.7,42.1,29.77,SW,232,0.0,5.0,67,0.00,,---,0.00,VWS V14.01,2013-10-09 06:26:00,
2013-10-08 23:30:00,52.6,42.0,29.77,West,273,1.0,5.0,67,0.00,,---,0.00,VWS V14.01,2013-10-09 06:30:00,
2013-10-08 23:31:00,52.5,41.9,29.77,West,259,0.0,3.0,67,0.00,,---,0.00,VWS V14.01,2013-10-09 06:31:00,
2013-10-08 23:36:00,52.3,42.1,29.76,SSW,211,0.0,3.0,68,0.00,,---,0.00,VWS V14.01,2013-10-09 06:36:00,
2013-10-08 23:41:00,52.5,42.6,29.76,West,274,0.0,3.0,69,0.00,,---,0.00,VWS V14.01,2013-10-09 06:41:00,
2013-10-08 23:46:00,52.6,42.7,29.76,WSW,249,0.0,3.0,69,0.00,,---,0.00,VWS V14.01,2013-10-09 06:46:00,
2013-10-08 23:51:00,52.5,42.6,29.76,WSW,249,1.0,3.0,69,0.00,,---,0.00,VWS V14.01,2013-10-09 06:51:00,
2013-10-08 23:56:00,52.6,42.7,29.76,West,277,0.0,3.0,69,0.00,,---,0.00,VWS V14.01,2013-10-09 06:56:00,